Date String (YYYY-MM-DD hh:mm:ss) UTC,Instrument flags,Ambient pressure (hPa),Sample flow (lpm),Bypass flow (lpm),Sample temperature (°C),Ambient temperature (°C),ASC tube jacket temperature (°C),LED temperature (°C),Box temperature (°C),Sample RH (%),Span deviation,Mass concentration (μg/m³),Mass concentration (μg/m³),Mass concentration (μg/m³)
DateTimeUTC,F1_M11,P_M11,Q1_M11,Q2_M11,T1_M11,T2_M11,T3_M11,T4_M11,T5_M11,U1_M11,ZSPAN_M11,X0_M11,X2_M11,X1_M11
2022-08-18 20:00:00,,0830.5,5.00,0.00,29.5,28.5,00.0,38.1,31.4,22.2,0001.6,0015.27,0007.57,0006.62
2022-08-18 20:01:00,,0830.5,5.00,0.00,29.5,28.2,00.0,38.0,31.4,22.2,0001.9,0015.50,0007.60,0006.59
2022-08-18 20:02:00,,0830.5,5.00,0.00,29.4,27.5,00.0,38.0,31.2,22.2,0001.5,0014.86,0007.55,0006.56
2022-08-18 20:03:00,,0830.5,5.00,0.00,29.4,27.3,00.0,38.0,31.1,22.4,0000.7,0015.59,0007.48,0006.54
2022-08-18 20:04:00,,0830.5,5.00,0.00,29.3,27.3,00.0,38.0,31.1,21.7,0000.2,0015.89,0007.44,0006.52
2022-08-18 20:05:00,,0830.5,5.01,0.00,29.3,27.4,00.0,38.0,31.0,22.0,-000.1,0015.68,0007.40,0006.48
2022-08-18 20:06:00,,0830.4,5.00,0.00,29.3,27.6,00.0,38.0,31.0,22.3,0000.4,0016.15,0007.32,0006.45
2022-08-18 20:07:00,,0830.4,5.00,0.00,29.3,27.8,00.0,38.0,31.1,22.3,0000.7,0016.39,0007.28,0006.41
2022-08-18 20:08:00,,0830.4,5.00,0.00,29.3,28.0,00.0,38.0,31.2,21.8,0000.0,0016.72,0007.26,0006.38
2022-08-18 20:09:00,,0830.4,5.00,0.00,29.4,28.2,00.0,38.0,31.3,22.1,0000.0,0016.46,0007.25,0006.36
2022-08-18 20:10:00,,0830.4,5.01,0.00,29.4,28.3,00.0,38.1,31.4,22.7,0000.0,0016.95,0007.23,0006.34
2022-08-18 20:11:00,,0830.4,5.00,0.00,29.4,28.1,00.0,38.0,31.3,21.4,0000.0,0016.58,0007.18,0006.33
2022-08-18 20:12:00,,0830.4,5.00,0.00,29.4,27.5,00.0,38.0,31.1,22.0,0000.0,0016.44,0007.10,0006.31
2022-08-18 20:13:00,,0830.4,4.99,0.00,29.3,27.2,00.0,38.0,31.1,21.6,0000.0,0016.72,0007.08,0006.31
2022-08-18 20:14:00,,0830.4,5.01,0.00,29.3,27.2,00.0,38.0,31.0,21.8,0000.0,0015.76,0007.08,0006.33
2022-08-18 20:15:00,,0830.3,5.00,0.00,29.2,27.3,00.0,38.0,30.9,21.8,0000.0,0015.97,0007.08,0006.32
2022-08-18 20:16:00,,0830.4,5.00,0.00,29.2,27.5,00.0,38.0,31.0,22.1,0000.0,0016.25,0007.10,0006.33
2022-08-18 20:17:00,,0830.4,5.01,0.00,29.2,27.7,00.0,38.0,31.1,22.3,0000.0,0015.87,0007.10,0006.32
2022-08-18 20:18:00,,0830.4,5.00,0.00,29.3,27.9,00.0,38.0,31.2,21.9,0000.0,0015.47,0007.10,0006.33
2022-08-18 20:19:00,,0830.4,5.00,0.00,29.3,28.1,00.0,38.0,31.3,21.0,0000.0,0015.16,0007.06,0006.34
2022-08-18 20:20:00,,0830.4,5.00,0.00,29.4,28.3,00.0,38.0,31.4,20.7,0000.0,0015.32,0006.98,0006.33
2022-08-18 20:21:00,,0830.4,5.00,0.00,29.4,28.1,00.0,38.0,31.3,20.3,0000.0,0014.96,0006.94,0006.31
2022-08-18 20:22:00,,0830.4,4.99,0.00,29.4,27.5,00.0,38.0,31.1,20.7,0000.0,0015.25,0006.97,0006.30
2022-08-18 20:23:00,,0830.4,5.00,0.00,29.3,27.1,00.0,38.0,31.0,21.8,0000.0,0015.27,0006.97,0006.28
2022-08-18 20:24:00,,0830.3,5.00,0.00,29.3,27.2,00.0,38.0,31.0,21.3,0000.0,0015.23,0006.92,0006.25
2022-08-18 20:25:00,,0830.3,4.99,0.00,29.2,27.3,00.0,38.0,31.0,21.0,0000.0,0014.61,0006.88,0006.20
2022-08-18 20:26:00,,0830.2,5.01,0.00,29.2,27.5,00.0,38.0,31.0,20.9,0000.0,0013.58,0006.85,0006.17
2022-08-18 20:27:00,,0830.2,4.99,0.00,29.2,27.7,00.0,38.0,31.1,20.8,0000.0,0013.05,0006.79,0006.12
2022-08-18 20:28:00,,0830.2,5.00,0.00,29.3,27.9,00.0,38.0,31.2,20.5,0000.0,0012.89,0006.75,0006.08
2022-08-18 20:29:00,,0830.2,5.01,0.00,29.3,28.1,00.0,38.0,31.3,20.1,0000.0,0014.17,0006.75,0006.04
2022-08-18 20:30:00,,0830.2,5.00,0.00,29.4,28.2,00.0,38.0,31.4,19.9,0000.0,0014.26,0006.74,0006.00
2022-08-18 20:31:00,,0830.3,5.00,0.00,29.4,28.4,00.0,38.1,31.4,20.3,0000.0,0013.86,0006.71,0005.97
2022-08-18 20:32:00,,0830.2,5.00,0.00,29.4,28.0,00.0,38.0,31.3,20.3,0000.0,0013.42,0006.65,0005.95
2022-08-18 20:33:00,,0830.2,4.99,0.00,29.4,27.4,00.0,38.0,31.1,19.9,0000.0,0013.73,0006.56,0005.93
2022-08-18 20:34:00,,0830.1,5.00,0.00,29.3,27.2,00.0,38.0,31.1,20.1,0000.0,0013.56,0006.50,0005.93
2022-08-18 20:35:00,,0830.1,4.99,0.00,29.3,27.3,00.0,38.0,31.1,20.1,0000.0,0013.14,0006.50,0005.93
2022-08-18 20:36:00,,0830.1,5.00,0.00,29.2,27.4,00.0,38.0,31.0,20.2,0000.0,0013.36,0006.51,0005.93
2022-08-18 20:37:00,,0830.1,5.01,0.00,29.2,27.6,00.0,38.0,31.1,20.2,0000.0,0013.29,0006.51,0005.92
2022-08-18 20:38:00,,0830.1,5.01,0.00,29.3,27.8,00.0,38.0,31.1,20.1,0000.0,0013.07,0006.53,0005.93
2022-08-18 20:39:00,,0830.1,5.00,0.00,29.3,28.0,00.0,38.0,31.2,20.5,0000.0,0012.87,0006.55,0005.94
2022-08-18 20:40:00,,0830.1,5.00,0.00,29.4,28.2,00.0,38.0,31.3,20.4,0000.0,0011.69,0006.52,0005.94
2022-08-18 20:41:00,,0830.2,5.00,0.00,29.4,28.3,00.0,38.0,31.4,20.5,0000.0,0011.67,0006.52,0005.94
2022-08-18 20:42:00,,0830.1,4.99,0.00,29.4,27.7,00.0,38.0,31.2,20.5,0000.0,0012.09,0006.57,0005.94
2022-08-18 20:43:00,,0830.1,5.01,0.00,29.3,27.2,00.0,38.0,31.0,20.2,0000.0,0013.14,0006.60,0005.94
2022-08-18 20:44:00,,0830.1,4.99,0.00,29.3,27.1,00.0,38.0,31.0,20.9,0000.0,0012.93,0006.62,0005.95
2022-08-18 20:45:00,,0830.1,5.00,0.00,29.2,27.2,00.0,38.0,30.9,22.1,0000.0,0013.01,0006.65,0005.92
2022-08-18 20:46:00,,0830.0,5.00,0.00,29.2,27.4,00.0,38.0,31.0,21.6,0000.0,0014.81,0006.67,0005.89
2022-08-18 20:47:00,,0830.0,5.00,0.00,29.2,27.6,00.0,38.0,31.1,21.5,0000.0,0016.07,0006.64,0005.86
2022-08-18 20:48:00,,0830.0,5.00,0.00,29.2,27.8,00.0,38.0,31.2,20.9,0000.0,0016.95,0006.60,0005.83
2022-08-18 20:49:00,,0830.1,5.01,0.00,29.3,28.0,00.0,38.0,31.2,20.3,0000.0,0016.94,0006.57,0005.79
2022-08-18 20:50:00,,0830.0,5.02,0.00,29.3,28.2,00.0,38.0,31.3,20.5,0000.0,0016.78,0006.52,0005.76
2022-08-18 20:51:00,,0830.0,5.01,0.00,29.4,28.4,00.0,38.0,31.4,20.3,0000.0,0016.71,0006.47,0005.72
2022-08-18 20:52:00,,0830.0,4.99,0.00,29.4,28.2,00.0,38.0,31.4,20.7,0000.0,0016.94,0006.43,0005.70
2022-08-18 20:53:00,,0830.0,5.00,0.00,29.4,27.6,00.0,38.0,31.1,20.1,0000.0,0017.58,0006.38,0005.67
2022-08-18 20:54:00,,0829.9,5.00,0.00,29.3,27.3,00.0,38.0,31.1,20.6,0000.0,0016.80,0006.32,0005.64
2022-08-18 20:55:00,,0829.9,4.99,0.00,29.3,27.3,00.0,38.0,31.0,20.7,0000.0,0017.05,0006.27,0005.60
2022-08-18 20:56:00,,0829.9,5.02,0.00,29.2,27.4,00.0,38.0,31.0,21.3,0000.0,0016.88,0006.22,0005.57
2022-08-18 20:57:00,,0829.9,5.00,0.00,29.2,27.6,00.0,38.0,31.1,21.1,0000.0,0016.15,0006.15,0005.54
2022-08-18 20:58:00,,0830.0,4.99,0.00,29.2,27.7,00.0,38.0,31.2,20.2,0000.0,0015.18,0006.12,0005.52
2022-08-18 20:59:00,,0830.0,5.00,0.00,29.3,27.9,00.0,38.0,31.2,20.6,0000.0,0014.78,0006.12,0005.52
